Regional Weather Roundup
Issued by NWS

Home | Current Version | Previous Version | Graphics & Text | Print | Product List | Glossary On
Versions: 1 2 3 4 5 6 7 8 9 10 11 12 13 14 15 16 17 18 19 20 21 22 23 24 25 26 27 28 29 30 31 32 33 34 35 36 37 38 39 40 41 42 43 44 45 46 47 48 49 50
000
ASUS43 KDTX 261301
RWRMI
MICHIGAN HOURLY REGIONAL WEATHER ROUNDUP
NATIONAL WEATHER SERVICE DETROIT/PONTIAC MI
900 AM EDT SUN MAR 26 2017

NOTE: "FAIR" INDICATES FEW OR NO CLOUDS BELOW 12,000 FEET WITH NO
SIGNIFICANT WEATHER AND/OR OBSTRUCTION TO VISIBILITY.

MIZ047>049-052>055-059>063-066>070-074>076-081>083-261400-
SOUTHEAST LOWER MICHIGAN

CITY           SKY/WX    TMP DP  RH WIND       PRES   REMARKS
ADRIAN         CLOUDY    39  37  92 E10       30.02R WCI  32
ALMA           LGT RAIN  37  37  99 NE6       30.03F WCI  32
ANN ARBOR      CLOUDY    40  38  93 NE8       30.01S WCI  34
BAD AXE        CLOUDY    36  34  91 E7        30.05F WCI  31
CARO           CLOUDY    38  35  90 E5        30.04R WCI  34
DETROIT CITY   CLOUDY    40  38  93 E12       30.04F WCI  33
DETROIT        CLOUDY    41  37  86 NE8       30.04S
FLINT          CLOUDY    41  38  89 SE8       30.02F
GROSSE ILE     CLOUDY    40  37  90 E8        30.02S WCI  34
HILLSDALE      CLOUDY    39  37  93 E7        29.98S FOG     WCI  34
HOWELL         CLOUDY    41  38  88 SE8       30.00F

CITY           SKY/WX    TMP DP  RH WIND       PRES   REMARKS
JACKSON        CLOUDY    41  39  93 E5        29.99S
LAMBERTVILLE   CLOUDY    40  37  90 E8        30.01S WCI  35
LANSING        PTSUNNY   41  37  86 E7        30.00F
LAPEER         CLOUDY    38  37  94 SE9       30.03F WCI  32
MASON          CLOUDY    40  39  93 SE3       30.00S
MONROE         CLOUDY    40  38  93 E8        30.01S WCI  35
PONTIAC        CLOUDY    39  36  89 E8        30.01F WCI  33
PORT HOPE        N/A     35  33  92 CALM      30.07S
TRI CITIES     CLOUDY    38  36  92 E7        30.05S WCI  33
MIDLAND        CLOUDY    37  35  90 E7        30.04S WCI  32
TROY           CLOUDY    40  36  86 E6        30.05S
SAGINAW HB     CLOUDY    37  34  87 NE9       30.04S WCI  31
$$
MIZ043>046-050>051-056>058-064>065-071>073-077>080-261400-
SOUTHWEST LOWER MICHIGAN

CITY           SKY/WX    TMP DP  RH WIND       PRES   REMARKS
BATTLE CREEK   CLOUDY    42  41  96 E8        29.97S
BENTON HARBOR  LGT RAIN  48  46  93 E9        29.91S FOG
BIG RAPIDS     CLOUDY    36  34  94 E8        30.00S FOG     WCI  29
COLDWATER      CLOUDY    43  42  98 E8        29.97S FOG
FREMONT        LGT RAIN  38  37  97 E9        29.97S WCI  31
HOLLAND        LGT RAIN  43  41  93 E10       29.95F FOG
GRAND RAPIDS   LGT RAIN  39  37  92 E13       29.97F FOG     WCI  31
IONIA          LGT RAIN  37  36  98 NE8       29.99F WCI  31
KALAMAZOO      LGT RAIN  44  41  89 SE6       29.97R FOG
LUDINGTON      CLOUDY    39  38  96 E7        29.95S WCI  34
MARSHALL       RAIN      41  41  98 E3        29.97S
MOUNT PLEASANT CLOUDY    36  34  94 E6        30.03S FOG     WCI  31
MUSKEGON       LGT RAIN  41  39  93 E12       29.96S FOG
SOUTH HAVEN    DRIZZLE   45  44  98 E8        29.93S
$$
MIZ016>042-261400-
NORTHERN LOWER MICHIGAN

CITY           SKY/WX    TMP DP  RH WIND       PRES   REMARKS
ALPENA         CLOUDY    34  34 100 E12       30.10F WCI  25
BEAVER ISLAND  CLOUDY    32  32  99 E9        30.04S WCI  25
BELLAIRE       CLOUDY    38  35  89 CALM      30.02S
CADILLAC       CLOUDY    35  34  96 SE9       29.98S FOG     WCI  27
CHARLEVOIX     DRIZZLE   36  36 100 E7        30.05S WCI  30
FRANKFORT      DRIZZLE   39  36  89 SE5       29.97S
GAYLORD        LGT RAIN  35  31  85 SE9       30.02S WCI  28
GRAYLING       CLOUDY    34  34 100 E9        30.03S FOG     WCI  26
HARBOR SPRINGS DRIZZLE   33  33  99 NE10      30.04F WCI  25
HOUGHTON LAKE  CLOUDY    35  33  92 E9        30.03S WCI  28
MANISTEE       CLOUDY    40  38  93 E9        29.96R WCI  34
OSCODA         CLOUDY    36  35  95 E8        30.09F WCI  30
PELLSTON       LGT RAIN  33  31  92 E9        30.07S WCI  25
ROGERS CITY    MIX PCPN  34  32  93 SE9G16      N/A  WCI  26
TRAVERSE CITY  CLOUDY    39  36  89 SE5       30.00S
$$
MIZ007>008-015-261400-
EASTERN UPPER MICHIGAN

CITY           SKY/WX    TMP DP  RH WIND       PRES   REMARKS
KINROSS        FLURRIES  30  29  96 E18G26    30.10F WCI  18
MACKINAC ISLAN LGT SNOW  32  32 100 E14G24    30.08S WCI  22
NEWBERRY       CLOUDY    32  31  97 E13       30.05F FOG     WCI  22
S. S. MARIE    FRZ RAIN  32  29  88 SE10      30.11F WCI  24
MUNISING         N/A     33  32  96 S3        30.03F
$$
MIZ004>006-011>014-085-261400-
CENTRAL UPPER MICHIGAN

CITY           SKY/WX    TMP DP  RH WIND       PRES   REMARKS
ESCANABA       CLOUDY    33  32  96 E8        30.02F FOG     WCI  26
MENOMINEE        N/A    N/A N/A N/A MISG        N/A
$$
MIZ001>003-009>011-084-261400-
WESTERN UPPER MICHIGAN

CITY           SKY/WX    TMP DP  RH WIND       PRES   REMARKS
IRON MOUNTAIN  FOG       32  29  88 E5        29.98S VSB 1/2 WCI  27
HOUGHTON       FOG       32  29  88 E10       30.00F VSB 1/4 WCI  24
COPPER HARBOR    N/A     33  31  92 VRB5      30.04F WCI  29
IRONWOOD       CLOUDY    33  32  96 NE3       29.98S FOG
$$

ABBREVIATIONS USED IN REMARKS
   TC - TEMPERATURE IN CELSIUS
  WCI - WIND CHILL INDEX
   HX - HEAT INDEX
  VSB - VISIBILITY




USA.gov is the U.S. government's official web portal to all federal, state and local government web resources and services.